Main page
METAR-TAF:

METAR-TAF

Airports :

Kalaleh, Iran

Kalaleh Airport

latitude: 37-22-60N, longitude: 55-27-07E, elevation: 130 m

Current weather observation

The report was made 38 minutes ago, at 14:00 UTC
Wind 4 kt from the North
Temperature 18°C
Humidity 73%
Pressure 1010 hPa
Visibility: 7000 m
Scattered clouds at a height of 2500 ft
Broken clouds at a height of 10000 ft

METAR: OINE 221400Z 36004KT 7000 SCT025 BKN100 18/13 Q1010

Time: 19:08 (14:38 UTC)


TAF: missing

Weather observations and forecasts of more than 4000 airports (METAR and TAF reports).

The available stations are represented by yellow and red dots on the map.

Hover mouse over dot to see the name of the station.

Then click to see weather observations and forecasts.

To change the map : click on the green buttons with a black cross to zoom in, on the green button with a dash to zoom out, or on the green arrows for adjacent maps.


METAR-TAF: